This is the latest recevied weather packets stored in our database for station/object W2GRK-15. If no packets are shown the sender has not sent any weather packets the latest 10 day(s).
| Time | Temp. | Humidity | Pressure | Rain* | Wind** | Luminosity | Snow |
|---|---|---|---|---|---|---|---|
| 1777728929 | 12.22° C | 77% | 1013 hPa | 0 mm | - | 122 W/m² | - |
| 1777728864 | 12.22° C | 77% | 1013.1 hPa | 0 mm | - | 184 W/m² | - |
| 1777728687 | 12.22° C | 77% | 1013.1 hPa | 0 mm | - | 191 W/m² | - |
| 1777728446 | 12.22° C | 78% | 1013.1 hPa | 0 mm | - | 234 W/m² | - |
| 1777728381 | 12.22° C | 79% | 1013.1 hPa | 0 mm | - | 216 W/m² | - |
| 1777727785 | 11.67° C | 78% | 1013 hPa | 0 mm | - | 179 W/m² | - |
| 1777727431 | 11.67° C | 78% | 1013.1 hPa | 0 mm | - | 139 W/m² | - |
| 1777727302 | 11.67° C | 78% | 1013.2 hPa | 0 mm | - | 131 W/m² | - |
| 1777727016 | 12.22° C | 79% | 1013.3 hPa | 0 mm | - | 118 W/m² | - |
| 1777726883 | 12.22° C | 79% | 1013.1 hPa | 0 mm | - | 157 W/m² | - |
| 1777726839 | 12.78° C | 80% | 1013.3 hPa | 0 mm | - | 188 W/m² | - |
| 1777726706 | 12.22° C | 81% | 1013.1 hPa | 0 mm | - | 225 W/m² | - |
| 1777726409 | 11.67° C | 82% | 1013.2 hPa | 0 mm | - | 216 W/m² | - |
| 1777726103 | 11.67° C | 83% | 1013.2 hPa | 0 mm | - | 354 W/m² | - |
| 1777725926 | 11.11° C | 83% | 1013.4 hPa | 0 mm | - | 217 W/m² | - |
| 1777725443 | 11.11° C | 85% | 1013.2 hPa | 0 mm | - | 169 W/m² | - |
| 1777724895 | 11.11° C | 87% | 1013.2 hPa | 0 mm | - | 121 W/m² | - |
| 1777724625 | 11.11° C | 88% | 1013.2 hPa | 0 mm | - | 117 W/m² | - |
| 1777724428 | 10.56° C | 88% | 1013.1 hPa | 0 mm | - | 118 W/m² | - |
| 1777724299 | 10.56° C | 88% | 1012.9 hPa | 0 mm | - | 109 W/m² | - |
| 1777724058 | 10.56° C | 89% | 1012.9 hPa | 0 mm | - | 118 W/m² | - |
| 1777723868 | 10.56° C | 90% | 1013 hPa | 0 mm | - | 105 W/m² | - |
| 1777723639 | 10° C | 91% | 1012.9 hPa | 0 mm | - | 81 W/m² | - |
| 1777723156 | 10° C | 94% | 1013 hPa | 0 mm | - | 84 W/m² | - |
| 1777722930 | 10° C | 95% | 1013.1 hPa | 0 mm | - | 88 W/m² | - |
* Rain latest hour (hover to see other rain measurements)
** Current wind speed in m/s (hover to see current wind gust speed)